Location: Catacaguana
(10.4120°N, 66.7591°W)
Time: 05:38:14
(UTC+00:00)

Cosmos 1602 Rocket - Pass Details

Date: 27 May 2022
Orbit: 602 x 634 km, 82.5° (Epoch: 24 June)

Event Time Altitude Azimuth Distance (km) Brightness Sun altitude
Exits shadow 08:13:53 79° 20° (NNE) 647 3.6 -25.3°
Drops below altitude 10° 08:18:05 10° 5° (N) 2,005 6.6 -24.4°
Sets 08:20:18 0° 5° (N) 2,909 7.5 -23.9°
